Weather in Kalachevo

Russia / Chelyabinsk Oblast     54°56′20″N   61°32′17″E
temp.,
°C
wind,
m/s
gust,
m/s
humid.,
%
clouds,
%
prec.,
mm/h
press.,
hPa
HPBL,
m
5 march, fri
fri523:00−9ssw5128636 0.0 1001263
02:00−5sw91681100 0.0 998640
05:00−4ssw81782100 0.0 996603
08:00−3wsw6177775 0.1 996664
11:00−2wsw7147575 0.1 999974
14:000wsw51074100 0.0 10001338
17:00−1sw4797100 0.6 1001472
20:00−2nw2498100 2.1 1000175
6 march, sat
sat623:00−6nw3896100 2.4 1002234
02:00−10wnw4108798 0.1 1006224
05:00−15wnw478960 0.1 100995
08:00−16w44870 0.0 101174
11:00−9w611800 0.0 1011540
14:00−6w587429 0.0 10111199
17:00−6sw488152 0.0 1011313
20:00−10sw348690 0.0 101269
7 march, sun
sun723:00−13wsw338484 0.0 101321
02:00−14wsw118668 0.0 101320
05:00−14sse118684 0.0 101220
08:00−13ese2291100 0.0 101032
11:00−10ene4595100 0.4 1007257
14:00−9ne4695100 1.5 1003356
17:00−9n5995100 3.1 1002436
20:00−11nnw51093100 0.6 1004360
8 march, mon
mon823:00−14wnw479695 0.6 1008145
02:00−17wnw5109052 0.0 1009172
05:00−19w348936 0.0 101127
08:00−20sw34880 0.0 101130
11:00−15ssw588638 0.0 1010283
14:00−10ssw71292100 0.3 1007736
17:00−6ssw71290100 0.5 10051034
20:00−5wsw7158667 0.0 1006786
9 march, tue
tue923:00−10wsw6127933 0.0 1008231
02:00−11ssw498582 0.0 1008167
05:00−7s5139691 0.6 1005641
08:00−5s101892100 1.1 1000945
11:00−5sw111965100 1.3 9991620
14:00−4wsw12206754 0.0 10011936
17:00−5wsw9157272 0.0 10041235
20:00−9w614780 0.0 1008415